FW2983 Weather Reports


time (UTC)temp
C
wind
direction
speed
KPH
gust
KPH
rain 1hr
cm
rain 24hr
cm
rain mn
cm
humidity
%
barometer
mb
20260506001004 15 0 0.0 0.0 0.00 0.00 0.00 51 1011.9
20260505231004 14 0 0.0 0.0 0.00 0.00 0.00 57 1012.2
20260505224008 15 0 0.0 0.0 0.00 0.00 0.00 61 1012.5
20260505214008 17 0 0.0 0.0 0.00 0.00 0.00 45 1012.9
20260505211004 17 0 0.0 0.0 0.00 0.00 0.00 47 1012.9
20260505204041 16 0 0.0 0.0 0.00 0.00 0.00 50 1013.5
20260505201035 15 0 0.0 0.0 0.00 0.00 0.00 54 1013.2
20260505194010 15 0 0.0 0.0 0.00 0.00 0.00 57 1013.9
20260505181035 17 0 0.0 0.0 0.00 0.00 0.00 45 1013.5
20260505171004 13 0 0.0 0.0 0.00 0.00 0.00 52 1013.9
20260505161004 12 0 0.0 0.0 0.00 0.00 0.00 58 1014.2
20260505151007 12 0 0.0 0.0 0.00 0.00 0.00 58 1014.6
20260505124010 14 0 0.0 0.0 0.00 0.00 0.00 40 1013.9
20260505114008 14 0 0.0 0.0 0.00 0.00 0.00 34 1013.5
20260505091003 16 0 0.0 0.0 0.00 0.00 0.00 31 1013.9
20260505074008 17 0 0.0 0.0 0.00 0.00 0.00 29 1014.2
20260505064009 17 0 0.0 0.0 0.00 0.00 0.00 25 1013.9
20260505061003 18 0 0.0 0.0 0.00 0.00 0.00 25 1013.9
20260505054010 18 0 0.0 0.0 0.00 0.00 0.00 25 1013.9
20260505041034 19 0 0.0 0.0 0.00 0.00 0.00 24 1013.5
20260505034008 20 0 0.0 0.0 0.00 0.00 0.00 23 1013.5
20260505031003 20 0 0.0 0.0 0.00 0.00 0.00 22 1013.2
20260505024008 21 0 0.0 0.0 0.00 0.00 0.00 21 1012.9
20260505021004 21 0 0.0 0.0 0.00 0.00 0.00 21 1012.5
20260505014008 21 0 0.0 0.0 0.00 0.00 0.00 21 1012.2
20260505011007 21 0 0.0 0.0 0.00 0.00 0.00 19 1011.9